Time,TemperatureF,DewpointF,PressureIn,WindDirection,WindDirectionDegrees,WindSpeedMPH,WindSpeedGustMPH,Humidity,HourlyPrecipIn,Conditions,Clouds,dailyrainin,SolarRadiationWatts/m^2,SoftwareType,DateUTC
2013-07-06 00:02:00,69.0,69.0,-100.00,North,1,0.0,2.0,100,0.00,,,0.84,0.000000,,2013-07-06 05:02:00,
2013-07-06 00:34:00,69.0,69.0,-100.00,ESE,113,0.0,0.0,100,0.00,,,0.84,0.000000,,2013-07-06 05:34:00,
2013-07-06 00:43:00,69.0,69.0,-100.00,ESE,113,0.0,0.0,100,0.00,,,0.84,0.000000,,2013-07-06 05:43:00,
2013-07-06 00:53:00,69.0,69.0,-100.00,ESE,113,0.0,0.0,100,0.00,,,0.84,0.000000,,2013-07-06 05:53:00,
2013-07-06 01:02:00,69.0,69.0,-100.00,ESE,113,0.0,0.0,100,0.00,,,0.84,0.000000,,2013-07-06 06:02:00,
2013-07-06 01:34:00,69.0,69.0,-100.00,East,99,0.0,0.0,100,0.02,,,0.86,0.000000,,2013-07-06 06:34:00,
2013-07-06 01:43:00,69.0,69.0,-100.00,East,99,0.0,0.0,100,0.02,,,0.86,0.000000,,2013-07-06 06:43:00,
2013-07-06 01:53:00,69.0,69.0,-100.00,East,99,0.0,0.0,100,0.02,,,0.86,0.000000,,2013-07-06 06:53:00,
2013-07-06 02:02:00,69.0,69.0,-100.00,East,99,0.0,0.0,100,0.02,,,0.86,0.000000,,2013-07-06 07:02:00,
2013-07-06 02:33:00,69.0,69.0,-100.00,SE,135,0.0,2.0,100,0.05,,,0.89,0.000000,,2013-07-06 07:33:00,
2013-07-06 02:44:00,69.0,69.0,-100.00,SE,135,0.0,2.0,100,0.05,,,0.89,0.000000,,2013-07-06 07:44:00,
2013-07-06 02:52:00,69.0,69.0,-100.00,SE,135,0.0,2.0,100,0.05,,,0.89,0.000000,,2013-07-06 07:52:00,
2013-07-06 03:02:00,69.0,69.0,-100.00,SE,135,0.0,2.0,100,0.05,,,0.89,0.000000,,2013-07-06 08:02:00,
2013-07-06 03:34:00,69.0,69.0,-100.00,North,2,1.0,3.0,100,0.09,,,0.97,0.000000,,2013-07-06 08:34:00,
2013-07-06 03:43:00,69.0,69.0,-100.00,North,2,1.0,3.0,100,0.09,,,0.97,0.000000,,2013-07-06 08:43:00,
2013-07-06 03:54:00,69.0,69.0,-100.00,North,2,1.0,3.0,100,0.09,,,0.97,0.000000,,2013-07-06 08:54:00,
2013-07-06 04:02:00,69.0,69.0,-100.00,North,2,1.0,3.0,100,0.09,,,0.97,0.000000,,2013-07-06 09:02:00,
2013-07-06 04:43:00,69.0,69.0,-100.00,SSW,204,1.0,3.0,100,0.52,,,1.49,0.000000,,2013-07-06 09:43:00,
2013-07-06 04:53:00,69.0,69.0,-100.00,SSW,204,1.0,3.0,100,0.52,,,1.49,0.000000,,2013-07-06 09:53:00,
2013-07-06 05:02:00,69.0,69.0,-100.00,SSW,204,1.0,3.0,100,0.52,,,1.49,0.000000,,2013-07-06 10:02:00,
2013-07-06 05:33:00,67.0,67.0,-100.00,SSW,205,3.0,7.0,100,0.14,,,1.62,0.000000,,2013-07-06 10:33:00,
2013-07-06 05:43:00,67.0,67.0,-100.00,SSW,205,3.0,7.0,100,0.14,,,1.62,0.000000,,2013-07-06 10:43:00,
2013-07-06 05:53:00,67.0,67.0,-100.00,SSW,205,3.0,7.0,100,0.14,,,1.62,0.000000,,2013-07-06 10:53:00,
2013-07-06 06:01:00,67.0,67.0,-100.00,SSW,205,3.0,7.0,100,0.14,,,1.62,0.000000,,2013-07-06 11:01:00,
2013-07-06 06:33:00,67.0,67.0,-100.00,SW,227,2.0,5.0,100,0.25,,,1.87,1.000000,,2013-07-06 11:33:00,
2013-07-06 06:43:00,67.0,67.0,-100.00,SW,227,2.0,5.0,100,0.25,,,1.87,1.000000,,2013-07-06 11:43:00,
2013-07-06 06:53:00,67.0,67.0,-100.00,SW,227,2.0,5.0,100,0.25,,,1.87,1.000000,,2013-07-06 11:53:00,
2013-07-06 07:01:00,67.0,67.0,-100.00,SW,227,2.0,5.0,100,0.25,,,1.87,1.000000,,2013-07-06 12:01:00,
2013-07-06 07:33:00,66.0,66.0,-100.00,NW,305,2.0,8.0,100,0.21,,,2.07,13.000000,,2013-07-06 12:33:00,
2013-07-06 07:43:00,66.0,66.0,-100.00,NW,305,2.0,8.0,100,0.21,,,2.07,13.000000,,2013-07-06 12:43:00,
2013-07-06 07:52:00,66.0,66.0,-100.00,NW,305,2.0,8.0,100,0.21,,,2.07,13.000000,,2013-07-06 12:52:00,
2013-07-06 08:01:00,66.0,66.0,-100.00,NW,305,2.0,8.0,100,0.21,,,2.07,13.000000,,2013-07-06 13:01:00,
2013-07-06 08:33:00,66.0,66.0,-100.00,NW,320,0.0,5.0,100,0.06,,,2.09,42.000000,,2013-07-06 13:33:00,
2013-07-06 08:43:00,66.0,66.0,-100.00,NW,320,0.0,5.0,100,0.06,,,2.09,42.000000,,2013-07-06 13:43:00,
2013-07-06 08:52:00,66.0,66.0,-100.00,NW,320,0.0,5.0,100,0.06,,,2.09,42.000000,,2013-07-06 13:52:00,
2013-07-06 09:02:00,66.0,66.0,-100.00,NW,320,0.0,5.0,100,0.06,,,2.09,42.000000,,2013-07-06 14:02:00,
2013-07-06 09:34:00,68.0,68.0,-100.00,SSE,165,0.0,2.0,100,0.02,,,2.09,123.000000,,2013-07-06 14:34:00,
2013-07-06 09:42:00,68.0,68.0,-100.00,SSE,165,0.0,2.0,100,0.02,,,2.09,123.000000,,2013-07-06 14:42:00,
2013-07-06 09:53:00,68.0,68.0,-100.00,SSE,165,0.0,2.0,100,0.02,,,2.09,123.000000,,2013-07-06 14:53:00,
2013-07-06 10:02:00,68.0,68.0,-100.00,SSE,165,0.0,2.0,100,0.02,,,2.09,123.000000,,2013-07-06 15:02:00,
2013-07-06 10:06:00,68.0,68.0,-100.00,South,169,2.0,4.0,99,0.03,,,2.11,152.000000,,2013-07-06 15:06:00,
2013-07-06 10:34:00,68.0,68.0,-100.00,South,169,2.0,4.0,99,0.03,,,2.11,152.000000,,2013-07-06 15:34:00,
2013-07-06 10:43:00,68.0,68.0,-100.00,South,169,2.0,4.0,99,0.03,,,2.11,152.000000,,2013-07-06 15:43:00,
2013-07-06 10:53:00,68.0,68.0,-100.00,South,169,2.0,4.0,99,0.03,,,2.11,152.000000,,2013-07-06 15:53:00,
2013-07-06 12:06:00,69.0,69.0,-100.00,SE,135,1.0,4.0,100,0.02,,,2.13,158.000000,,2013-07-06 17:06:00,
2013-07-06 13:00:00,69.0,69.0,-100.00,SE,135,1.0,4.0,100,0.02,,,2.13,158.000000,,2013-07-06 18:00:00,
2013-07-06 13:06:00,70.0,70.0,-100.00,SSE,168,1.0,4.0,100,0.02,,,2.14,182.000000,,2013-07-06 18:06:00,
2013-07-06 13:50:00,70.0,70.0,-100.00,SSE,168,1.0,4.0,100,0.02,,,2.14,182.000000,,2013-07-06 18:50:00,
2013-07-06 14:01:00,70.0,70.0,-100.00,SSE,168,1.0,4.0,100,0.02,,,2.14,182.000000,,2013-07-06 19:01:00,
2013-07-06 14:06:00,71.0,71.0,-100.00,South,186,3.0,7.0,99,0.00,,,1.50,227.000000,,2013-07-06 19:06:00,
2013-07-06 14:50:00,71.0,71.0,-100.00,South,186,3.0,7.0,99,0.00,,,1.50,227.000000,,2013-07-06 19:50:00,
2013-07-06 14:59:00,71.0,71.0,-100.00,South,186,3.0,7.0,99,0.00,,,1.50,227.000000,,2013-07-06 19:59:00,
2013-07-06 15:06:00,73.0,71.0,-100.00,South,191,2.0,7.0,93,0.00,,,1.50,275.000000,,2013-07-06 20:06:00,
2013-07-06 15:52:00,73.0,71.0,-100.00,South,191,2.0,7.0,93,0.00,,,1.50,275.000000,,2013-07-06 20:52:00,
2013-07-06 16:01:00,73.0,71.0,-100.00,South,191,2.0,7.0,93,0.00,,,1.50,275.000000,,2013-07-06 21:01:00,
2013-07-06 16:06:00,71.0,69.0,-100.00,South,180,2.0,7.0,94,0.00,,,1.50,203.000000,,2013-07-06 21:06:00,
2013-07-06 17:00:00,71.0,69.0,-100.00,South,180,2.0,7.0,94,0.00,,,1.50,203.000000,,2013-07-06 22:00:00,
2013-07-06 17:06:00,71.0,70.0,-100.00,SSE,164,2.0,6.0,97,0.00,,,1.44,114.000000,,2013-07-06 22:06:00,
2013-07-06 17:49:00,71.0,70.0,-100.00,SSE,164,2.0,6.0,97,0.00,,,1.44,114.000000,,2013-07-06 22:49:00,
2013-07-06 18:59:00,70.0,69.0,-100.00,South,184,2.0,6.0,98,0.00,,,1.44,100.000000,,2013-07-06 23:59:00,
2013-07-06 19:06:00,69.0,69.0,-100.00,SSE,158,1.0,5.0,100,0.00,,,1.43,69.000000,,2013-07-07 00:06:00,
2013-07-06 19:50:00,69.0,69.0,-100.00,SSE,158,1.0,5.0,100,0.00,,,1.43,69.000000,,2013-07-07 00:50:00,
2013-07-06 20:06:00,69.0,69.0,-100.00,WSW,258,1.0,4.0,100,0.00,,,1.43,54.000000,,2013-07-07 01:06:00,
2013-07-06 21:06:00,68.0,68.0,-100.00,NNW,348,2.0,4.0,100,0.00,,,1.43,0.000000,,2013-07-07 02:06:00,
2013-07-06 22:02:00,68.0,68.0,-100.00,NNW,348,2.0,4.0,100,0.00,,,1.43,0.000000,,2013-07-07 03:02:00,
2013-07-06 22:44:00,67.0,67.0,-100.00,NNE,14,1.0,3.0,100,0.00,,,1.43,0.000000,,2013-07-07 03:44:00,
2013-07-06 23:01:00,67.0,67.0,-100.00,NNE,14,1.0,3.0,100,0.00,,,1.43,0.000000,,2013-07-07 04:01:00,
2013-07-06 23:02:00,67.0,67.0,-100.00,NNE,14,1.0,3.0,100,0.00,,,1.43,0.000000,,2013-07-07 04:02:00,
2013-07-06 23:31:00,67.0,67.0,-100.00,North,1,1.0,3.0,100,0.00,,,1.43,0.000000,,2013-07-07 04:31:00,
2013-07-06 23:41:00,67.0,67.0,-100.00,North,1,1.0,3.0,100,0.00,,,1.43,0.000000,,2013-07-07 04:41:00,
2013-07-06 23:51:00,67.0,67.0,-100.00,North,1,1.0,3.0,100,0.00,,,1.43,0.000000,,2013-07-07 04:51:00,